TimeCST,TemperatureF,Dew PointF,Humidity,Sea Level PressureIn,VisibilityMPH,Wind Direction,Wind SpeedMPH,Gust SpeedMPH,PrecipitationIn,Events,Conditions,WindDirDegrees,DateUTC
12:07 AM,69.8,68.0,94,29.83,10.0,South,8.1,-,N/A,,Overcast,190,2012-12-09 06:07:00
12:55 AM,68.9,68.5,99,29.84,10.0,SSW,6.9,-,N/A,,Overcast,200,2012-12-09 06:55:00
1:34 AM,68.0,68.0,100,29.83,10.0,South,6.9,-,N/A,,Overcast,190,2012-12-09 07:34:00
1:55 AM,68.5,68.2,99,29.83,10.0,SSW,4.6,-,N/A,,Overcast,210,2012-12-09 07:55:00
2:17 AM,68.0,68.0,100,29.83,9.0,SSW,4.6,-,N/A,,Overcast,200,2012-12-09 08:17:00
2:55 AM,68.5,68.2,99,29.82,9.0,SSW,5.8,-,N/A,,Overcast,210,2012-12-09 08:55:00
3:08 AM,68.0,68.0,100,29.83,8.0,South,5.8,-,N/A,,Overcast,190,2012-12-09 09:08:00
3:55 AM,68.4,68.4,100,29.82,7.0,South,6.9,-,N/A,,Overcast,180,2012-12-09 09:55:00
4:12 AM,68.0,68.0,100,29.82,7.0,South,6.9,-,N/A,,Mostly Cloudy,180,2012-12-09 10:12:00
4:28 AM,68.0,68.0,100,29.82,7.0,South,9.2,-,N/A,,Mostly Cloudy,180,2012-12-09 10:28:00
4:55 AM,68.5,68.5,100,29.83,8.0,South,8.1,-,N/A,,Overcast,190,2012-12-09 10:55:00
5:01 AM,68.0,68.0,100,29.83,8.0,SSW,8.1,-,N/A,,Overcast,200,2012-12-09 11:01:00
5:55 AM,68.9,68.5,99,29.85,8.0,SSW,8.1,-,N/A,,Overcast,210,2012-12-09 11:55:00
6:15 AM,69.8,68.0,94,29.85,8.0,SSW,8.1,-,N/A,,Overcast,200,2012-12-09 12:15:00
6:55 AM,68.9,68.5,99,29.86,7.0,SSW,5.8,-,N/A,,Overcast,210,2012-12-09 12:55:00
7:14 AM,69.8,68.0,94,29.87,7.0,SSW,3.5,-,N/A,,Overcast,210,2012-12-09 13:14:00
7:28 AM,69.8,68.0,94,29.87,6.0,SSW,3.5,-,N/A,,Scattered Clouds,210,2012-12-09 13:28:00
7:55 AM,68.9,68.5,99,29.87,6.0,South,3.5,-,N/A,,Clear,170,2012-12-09 13:55:00
8:17 AM,69.8,68.0,94,29.87,5.0,SE,4.6,-,N/A,,Partly Cloudy,140,2012-12-09 14:17:00
8:40 AM,69.8,69.8,100,29.88,6.0,SSE,6.9,-,N/A,,Mostly Cloudy,160,2012-12-09 14:40:00
8:55 AM,69.4,69.1,99,29.88,6.0,South,8.1,-,N/A,,Overcast,170,2012-12-09 14:55:00
8:59 AM,69.8,69.8,100,29.88,6.0,South,8.1,-,N/A,,Overcast,180,2012-12-09 14:59:00
9:17 AM,69.8,69.8,100,29.89,7.0,South,8.1,-,N/A,,Overcast,190,2012-12-09 15:17:00
9:55 AM,70.9,69.8,96,29.88,8.0,SSW,8.1,-,N/A,,Overcast,210,2012-12-09 15:55:00
9:56 AM,71.6,69.8,94,29.88,8.0,SSW,8.1,-,N/A,,Overcast,210,2012-12-09 15:56:00
10:14 AM,71.6,69.8,94,29.88,9.0,SSW,8.1,-,N/A,,Scattered Clouds,200,2012-12-09 16:14:00
10:55 AM,73.6,69.4,87,29.88,10.0,South,8.1,-,N/A,,Partly Cloudy,190,2012-12-09 16:55:00
11:55 AM,75.4,68.9,80,29.85,10.0,SSW,9.2,-,N/A,,Partly Cloudy,210,2012-12-09 17:55:00
12:55 PM,75.9,67.6,75,29.81,10.0,SSW,6.9,-,N/A,,Clear,210,2012-12-09 18:55:00
1:16 PM,77.0,68.0,74,29.81,6.0,South,9.2,-,N/A,,Haze,190,2012-12-09 19:16:00
1:36 PM,77.0,68.0,74,29.80,7.0,South,9.2,-,N/A,,Mostly Cloudy,180,2012-12-09 19:36:00
1:55 PM,77.7,67.8,71,29.78,6.0,South,9.2,-,N/A,,Haze,190,2012-12-09 19:55:00
2:55 PM,78.1,66.2,67,29.77,7.0,SW,9.2,-,N/A,,Mostly Cloudy,220,2012-12-09 20:55:00
3:55 PM,77.5,65.8,67,29.77,10.0,SSW,4.6,-,N/A,,Mostly Cloudy,210,2012-12-09 21:55:00
4:55 PM,76.5,66.7,72,29.77,10.0,Calm,Calm,-,N/A,,Clear,0,2012-12-09 22:55:00
5:55 PM,72.9,66.0,79,29.77,10.0,Calm,Calm,-,N/A,,Clear,0,2012-12-09 23:55:00
6:55 PM,70.9,65.8,84,29.78,10.0,Calm,Calm,-,N/A,,Clear,0,2012-12-10 00:55:00
7:10 PM,69.8,66.2,88,29.79,9.0,Calm,Calm,-,N/A,Thunderstorm,Clear,0,2012-12-10 01:10:00
7:55 PM,68.7,65.8,90,29.78,9.0,Calm,Calm,-,N/A,,Clear,0,2012-12-10 01:55:00
8:21 PM,69.8,66.2,88,29.80,9.0,Calm,Calm,-,N/A,,Clear,0,2012-12-10 02:21:00
8:42 PM,68.0,66.2,94,29.80,9.0,NNE,3.5,-,N/A,,Clear,20,2012-12-10 02:42:00
8:55 PM,68.7,66.4,92,29.81,9.0,NNE,3.5,-,N/A,,Clear,20,2012-12-10 02:55:00
9:01 PM,69.8,66.2,88,29.82,9.0,North,15.0,20.7,N/A,,Clear,360,2012-12-10 03:01:00
9:21 PM,66.2,53.6,64,29.85,10.0,North,11.5,-,N/A,,Mostly Cloudy,360,2012-12-10 03:21:00
9:51 PM,62.6,50.0,63,29.88,10.0,NE,12.7,19.6,N/A,Thunderstorm,Light Drizzle,40,2012-12-10 03:51:00
9:54 PM,60.8,50.0,68,29.88,10.0,NE,12.7,19.6,N/A,Rain-Thunderstorm,Light Thunderstorms and Rain,40,2012-12-10 03:54:00
9:55 PM,61.2,50.9,69,29.88,10.0,NE,15.0,-,0.00,Rain-Thunderstorm,Light Thunderstorms and Rain,40,2012-12-10 03:55:00
10:10 PM,57.2,51.8,82,29.89,6.0,NE,9.2,19.6,N/A,Rain-Thunderstorm,Rain,40,2012-12-10 04:10:00
10:12 PM,57.2,53.6,88,29.91,5.0,NNE,5.8,19.6,N/A,Rain-Thunderstorm,Rain,30,2012-12-10 04:12:00
10:14 PM,57.2,53.6,88,29.91,5.0,North,6.9,-,N/A,Rain-Thunderstorm,Rain,360,2012-12-10 04:14:00
10:15 PM,57.2,53.6,88,29.91,5.0,North,6.9,-,N/A,Rain-Thunderstorm,Rain,360,2012-12-10 04:15:00
10:16 PM,57.2,53.6,88,29.91,5.0,North,6.9,-,N/A,Rain-Thunderstorm,Light Rain,10,2012-12-10 04:16:00
10:29 PM,55.4,53.6,94,29.91,10.0,North,11.5,-,N/A,,Mostly Cloudy,10,2012-12-10 04:29:00
10:42 PM,55.4,50.0,82,29.91,10.0,NNE,11.5,-,N/A,,Scattered Clouds,30,2012-12-10 04:42:00
10:55 PM,55.9,50.2,81,29.91,10.0,NNE,12.7,19.6,0.04,,Scattered Clouds,30,2012-12-10 04:55:00
11:33 PM,55.4,48.2,77,29.91,10.0,NNE,10.4,-,N/A,,Mostly Cloudy,20,2012-12-10 05:33:00
11:55 PM,55.2,48.6,78,29.92,10.0,NNE,8.1,-,N/A,,Overcast,20,2012-12-10 05:55:00